Regional Weather Roundup
Issued by NWS

Home | Current Version | Previous Version | Graphics & Text | Print | Product List | Glossary On
Versions: 1 2 3 4 5 6 7 8 9 10 11 12 13 14 15 16 17 18 19 20 21 22 23 24 25 26 27 28 29 30 31 32 33 34 35 36 37 38 39 40 41 42 43 44 45 46 47 48 49 50
000
ASUS43 KBIS 270531
RWRND
NORTH DAKOTA REGIONAL WEATHER ROUNDUP
NATIONAL WEATHER SERVICE EASTERN NORTH DAKOTA/GRAND FORKS ND
1200 AM CDT SAT MAY 27 2017

  NOTE: "FAIR" INDICATES FEW OR NO CLOUDS BELOW 12,000 FEET WITH NO
  SIGNIFICANT WEATHER AND/OR OBSTRUCTIONS TO VISIBILITY.

NDZ001>003-009>011-017-270600-
...NORTHWEST NORTH DAKOTA...

CITY           SKY/WX    TMP DP  RH WIND       PRES   REMARKS
WILLISTON      FAIR      49  39  68 W9        29.85R
MINOT          FAIR      56  37  49 W7        29.79R
MINOT AFB      FAIR      52  38  60 W10       29.78R
$$

NDZ018>021-031>035-040>046-270600-
...SOUTHWEST NORTH DAKOTA...

CITY           SKY/WX    TMP DP  RH WIND       PRES   REMARKS
BISMARCK       FAIR      53  38  56 SW7       29.86R
DICKINSON      FAIR      47  33  58 W8        29.87S
GARRISON         N/A     49  35  58 W8        29.82R
HETTINGER      FAIR      50  36  58 NW3       29.93R
$$

NDZ004>008-012>016-024-026-027-054-270600-
...NORTHEAST NORTH DAKOTA...

CITY           SKY/WX    TMP DP  RH WIND       PRES   REMARKS
GRAND FORKS    FAIR      51  43  74 SW8       29.77S
GRAND FORKS AF FAIR      50  42  74 SW7       29.78R
DEVILS LAKE    FAIR      54  46  74 SW8       29.78S
$$

NDZ022-023-025-028>030-036>039-047>053-270600-
...SOUTHEAST NORTH DAKOTA...

CITY           SKY/WX    TMP DP  RH WIND       PRES   REMARKS
JAMESTOWN      FAIR      52  41  66 SW6       29.82S
FARGO          FAIR      55  43  63 SW5       29.81S
WAHPETON       FAIR      52  39  62 CALM      29.84S
$$




USA.gov is the U.S. government's official web portal to all federal, state and local government web resources and services.